Location: Lango�lan
(48.1202°N, 3.2340°W)
Time: 05:09:17
(UTC+00:00)

Daily predictions for brighter satellites

Satellite Brightness Start Highest point End
(mag) Time Altitude Azimuth Time Altitude Azimuth Time Altitude Azimuth
Cosmos 2360 Rocket 4.4 02:41:26 19° NNE 02:41:26 19° NNE 02:42:55 10° NNE
COSMOS 2455 4.4 02:57:25 30° NNE 02:57:25 30° NNE 03:00:24 10° NNE
USA 234 3.8 02:53:37 10° E 02:59:21 53° NE 02:59:21 53° NE
ATLAS 3B R/B 3.4 03:06:13 45° ESE 03:06:13 45° ESE 03:10:58 10° SE
CENTAUR R/B 3.1 03:11:14 82° NE 03:11:20 82° NE 03:20:02 10° SE
BREEZE-M DEB (TANK) 4.4 03:38:42 26° E 03:38:42 26° E 03:39:52 10° ENE
Cosmos 2333 Rocket 3.1 03:39:58 39° N 03:39:58 39° N 03:43:42 10° NNE
ATLAS 2AS CENTAUR R/B 2.9 03:38:13 74° SW 03:39:06 90° NW 03:47:11 10° NE
RESURS DK-1 4.4 03:43:35 24° ESE 03:43:35 24° ESE 03:46:54 10° NE
Cosmos 2219 Rocket 3.1 03:47:50 37° N 03:47:50 37° N 03:51:29 10° NNE
SL-16 R/B 4.4 03:49:46 13° NNW 03:49:46 13° NNW 03:51:17 10° N
ADEOS II 3.8 03:54:09 10° N 03:56:02 20° NNW 03:56:02 20° NNW
Cosmos 2228 4.2 03:55:13 10° N 03:59:15 40° ENE 04:03:15 10° SE
Cosmos 1726 4.5 03:58:54 10° NNE 04:01:55 23° ENE 04:04:55 10° SE
Cosmos 2237 Rocket 2.0 04:01:56 85° SW 04:02:05 89° WNW 04:07:51 10° NNE
NOSS 0 Rocket 3.8 04:06:31 70° W 04:06:55 73° WNW 04:13:08 10° NNE
USA 267 3.2 04:01:16 10° NE 04:07:51 79° SE 04:09:42 51° SW
PSLV R/B 4.0 04:07:54 10° NNE 04:11:14 54° NNE 04:11:14 54° NNE
Cosmos 2369 Rocket 4.0 04:08:41 10° NNW 04:13:29 28° NE 04:18:14 10° ESE
Meteor 1-21 4.2 04:13:53 61° NW 04:13:53 61° NW 04:19:07 10° N
Cosmos 1726 Rocket 4.1 04:10:21 10° N 04:14:36 55° ENE 04:18:50 10° SSE
Cosmos 2322 Rocket 4.4 04:16:41 11° NNW 04:16:41 11° NNW 04:17:52 10° NNW
Cosmos 1980 3.6 04:20:04 62° W 04:20:26 64° WNW 04:26:05 10° NNE
Cosmos 2327 Rocket 4.5 04:15:07 10° S 04:21:19 81° E 04:27:28 10° N
Cosmos 676 Rocket 4.2 04:19:10 33° S 04:21:30 72° ESE 04:26:44 10° NNE
Cosmos 2360 Rocket 4.1 04:23:13 15° NNW 04:23:13 15° NNW 04:25:53 10° N
IDEFIX/ARIANE 42P 2.4 04:17:47 10° NNE 04:23:02 79° WNW 04:24:24 50° SSW
Cosmos 407 Rocket 3.4 04:27:15 59° WNW 04:27:16 59° WNW 04:32:21 10° NNE
Cosmos 2154 Rocket 4.1 04:21:36 10° S 04:27:45 75° E 04:33:59 10° NNE
COSMOS 2428 3.8 04:29:57 29° NW 04:29:57 29° NW 04:34:25 10° NNE
Cosmos 1190 Rocket 4.0 04:29:54 58° W 04:30:32 63° WNW 04:35:48 10° NNE
Cosmos 1610 Rocket 4.5 04:25:30 10° S 04:31:49 86° E 04:38:14 10° N
Cosmos 1943 Rocket 3.4 04:26:39 10° NNW 04:32:00 40° NE 04:37:20 10° ESE
Cosmos 1707 3.5 04:33:58 40° NNW 04:33:58 40° NNW 04:36:38 10° N
Cosmos 2184 Rocket 3.9 04:32:54 25° SSW 04:36:38 63° WNW 04:42:56 10° N
Meteor 1-31 Rocket 3.6 04:36:04 10° NNE 04:39:47 48° E 04:43:27 10° S
COSMOS 2441 4.3 04:35:47 10° NNE 04:40:44 88° WNW 04:45:37 10° SSW
COSMOS 2455 4.3 04:40:34 21° NW 04:41:25 21° NNW 04:45:56 10° NNE
Nadezhda 3 Rocket 3.9 04:35:30 10° N 04:41:54 79° W 04:48:12 10° S
USA 234 3.2 04:36:20 10° SE 04:42:51 71° SW 04:46:43 27° WNW
Cosmos 44 Rocket 3.1 04:42:10 49° WNW 04:43:13 65° WSW 04:47:51 10° SSE
Cosmos 2058 Rocket 3.2 04:40:06 10° N 04:44:32 75° E 04:48:59 10° SSE
Okean O Rocket 4.5 04:46:15 10° NE 04:49:26 19° E 04:52:34 10° SE
NOSS 3-4 (A) 3.7 04:47:28 36° W 04:49:43 54° NW 04:56:07 10° NE
NOSS 3-4 (C) 3.6 04:47:32 36° W 04:49:49 54° NW 04:56:14 10° NE
Cosmos 614 Rocket 4.5 04:52:04 36° WNW 04:52:46 38° WNW 04:57:38 10° N
H-2A R/B 2.5 04:49:12 10° N 04:53:23 63° WNW 04:55:49 25° SW
ATLAS 3B R/B 3.3 04:53:34 31° W 04:54:27 32° WSW 05:00:21 10° S
BREEZE-M R/B 4.3 04:52:31 33° WNW 04:55:13 80° N 05:06:25 10° E
Gblst 52 Del rocket 4.2 04:54:20 34° W 04:56:39 62° SSW 05:02:25 10° SE
CZ-4B R/B 2.9 04:54:22 10° NNE 04:58:20 75° ESE 05:02:05 10° S
SL-16 R/B 2.1 04:53:15 13° SSW 04:58:21 84° WNW 05:04:05 10° NNE
Cosmos 2341 Rocket 4.1 04:53:08 10° S 04:59:20 77° E 05:05:34 10° NNE
Cosmos 1140 Rocket 3.7 04:57:30 33° WSW 04:59:22 47° WNW 05:04:22 10° NNE
Cosmos 1850 Rocket 4.5 04:55:23 10° S 05:00:28 62° ESE 05:05:36 10° NNE
SKYMED 2 4.3 04:56:22 10° SSE 05:00:35 54° ENE 05:04:51 10° N
CENTAUR R/B 3.8 04:58:32 25° WNW 05:01:39 32° WSW 05:08:58 10° S
Cosmos 1295 Rocket 4.4 04:56:57 10° S 05:03:07 82° W 05:09:16 10° N
Meteor 1-16 Rocket 4.1 04:58:34 10° NNW 05:03:46 56° W 05:09:02 10° S
Cosmos 2074 Rocket 4.4 05:00:40 21° SW 05:04:16 39° WNW 05:10:05 10° N
Meteor 2-10 4.0 04:59:41 10° NNW 05:04:54 67° W 05:10:15 10° S
Cosmos 1892 Rocket 3.4 05:00:40 10° SSW 05:05:03 68° W 05:09:27 10° N
Cosmos 1954 Rocket 4.1 05:02:59 21° SW 05:06:22 55° WNW 05:11:29 10° NNE
ERBS 4.0 05:07:57 20° NNW 05:08:30 21° NNW 05:11:12 10° NE
PAYLOAD A 4.0 05:05:14 10° N 05:10:01 57° WNW 05:14:58 10° SSW
Cosmos 2297 4.0 05:05:24 10° NW 05:10:47 43° WSW 05:16:08 10° S
Cosmos 468 Rocket 3.9 05:07:27 10° NNW 05:12:39 81° WSW 05:17:45 10° SSE
Cosmos 1606 Rocket 4.2 05:09:12 10° NNW 05:13:00 30° W 05:16:46 10° SSW
SL-8 Rocket 4.2 05:08:00 10° S 05:14:08 72° E 05:20:16 10° NNE
CZ-2C R/B 2.5 05:09:01 10° N 05:14:11 64° WNW 05:19:14 10° SSW
Meteor PRIRODA 3.7 05:11:03 10° NNE 05:14:49 81° ESE 05:18:33 10° S
ADEOS 4.3 05:10:32 10° N 05:15:08 32° WNW 05:17:42 21° WSW
MSX 4.1 05:14:09 10° N 05:19:33 44° WNW 05:24:56 10° SW
USA 116 4.3 05:16:27 10° SSE 05:19:51 48° ENE 05:23:01 10° N
RESURS DK-1 2.9 05:19:32 25° WSW 05:21:22 38° NW 05:25:17 10° NNE
Cosmos 2333 Rocket 3.9 05:22:00 14° NW 05:23:35 16° NW 05:26:57 10° N
Meteor 1-4 Rocket 3.9 05:24:47 20° NW 05:24:47 20° NW 05:26:51 10° NNW
Cosmos 2366 rocket 4.4 05:18:40 10° S 05:24:59 70° E 05:31:18 10° NNE
COBE Rocket 3.9 05:20:02 10° S 05:25:07 80° WSW 05:30:21 10° NNW
Cosmos 841 Rocket 3.9 05:24:10 10° NNW 05:29:27 68° ENE 05:34:40 10° SSE
GP-B 3.3 05:26:40 10° SSW 05:30:58 49° W 05:35:18 10° NNW
ATLAS 2AS CENTAUR R/B 3.8 05:25:41 18° W 05:31:07 37° NNW 05:38:22 10° NE
Cosmos 2219 Rocket 4.0 05:29:34 12° NW 05:31:20 14° NNW 05:34:10 10° N
Helios 1A Rocket 3.9 05:27:29 10° NNE 05:31:34 53° E 05:35:38 10° S
KORONAS-FOTON 3.7 05:28:20 10° SSW 05:32:05 66° WNW 05:35:53 10° N
SL-14 R/B 4.3 05:28:44 10° S 05:32:31 49° E 05:36:17 10° NNE
Cosmos 1570 Rocket 4.0 05:27:46 10° NNW 05:33:08 77° WSW 05:38:26 10° SSE
Cosmos 1812 Rocket 3.8 05:29:59 10° N 05:34:29 74° E 05:38:55 10° SSE
Cosmos 2228 4.2 05:33:23 10° NW 05:36:31 20° W 05:39:39 10° SW
Cosmos 1726 3.0 05:34:00 10° NNW 05:37:07 26° W 05:40:14 10° SSW
In-Cosmos 22 4.5 05:32:34 10° SW 05:37:40 43° WNW 05:42:57 10° N
Cosmos 1626 Rocket 3.5 05:33:56 10° S 05:38:15 85° W 05:42:37 10° N
Cosmos 540 Rocket 3.7 05:39:01 10° NNW 05:44:12 73° ENE 05:49:20 10° SSE
Meteor 2-17 Rocket 4.5 05:39:49 10° SSW 05:45:46 58° WNW 05:51:45 10° N
Cosmos 1437 Rocket 3.5 05:42:30 10° SW 05:45:51 30° WNW 05:49:15 10° N
Cosmos 2237 Rocket 3.6 05:43:48 14° W 05:47:00 21° NW 05:51:15 10° N
Cosmos 1763 Rocket 3.6 05:43:12 10° NNW 05:48:14 52° WSW 05:53:09 10° S
ALOS 2.6 05:43:49 10° NNE 05:48:31 74° ESE 05:53:10 10° S
COSMO-SKYMED 1 2.7 05:44:28 10° S 05:48:40 50° W 05:52:55 10° NNW
Cosmos 2208 Rocket 4.0 05:44:26 10° NNW 05:49:38 66° WSW 05:54:51 10° S
USA 267 3.6 05:44:23 10° NE 05:50:40 51° NNW 05:56:57 10° W
Cosmos 192 4.4 05:45:58 10° NNW 05:50:52 62° WSW 05:55:45 10° S
Cosmos 1741 Rocket 4.1 05:46:19 10° SW 05:51:32 56° WNW 05:56:48 10° NNE
Cosmos 1908 4.0 05:48:49 10° NNW 05:52:09 28° W 05:55:27 10° SSW
MOS 1-B 4.3 05:46:29 10° NNE 05:52:19 73° WNW 05:58:05 10° SSW
SJ-12 3.9 05:51:30 10° N 05:55:36 69° WNW 05:59:40 10° SSW
Cosmos 2369 Rocket 2.2 05:52:23 10° NNW 05:57:54 60° WSW 06:03:22 10° S
PSLV R/B 4.2 05:55:22 10° N 05:58:48 37° WNW 06:02:13 10° SW
CZ-4B DEB 4.2 05:53:58 10° NNE 05:59:26 72° WNW 06:04:51 10° SSW
Cosmos 1656 Rocket 4.0 05:55:23 10° NNW 06:00:50 68° ENE 06:06:13 10° SE
IDEFIX/ARIANE 42P 4.2 05:59:08 10° NNW 06:01:48 14° NW 06:04:28 10° W
Cosmos 1900 4.3 05:57:42 10° NW 06:02:38 73° WSW 06:07:29 10° SSE
Meteor 2-5 Rocket 4.2 05:59:45 10° SW 06:05:18 43° WNW 06:10:57 10° N
BREEZE-M DEB (TANK) 2.1 06:03:55 10° WNW 06:06:08 76° N 06:09:46 10° E
Cosmos 1455 4.4 06:03:17 10° NNE 06:06:36 28° ENE 06:09:52 10° SE
Cosmos-2242 3.6 06:03:40 10° N 06:07:55 61° ENE 06:12:07 10° SSE
Cosmos 2218 Rocket 4.1 06:03:39 10° SSW 06:09:53 56° WNW 06:16:05 10° N
CZ-4B R/B 3.1 06:05:52 10° NNE 06:11:11 83° WNW 06:16:29 10° SSW
Cosmos 1674 3.9 06:08:46 10° WSW 06:11:40 21° WNW 06:14:35 10° NNW
NOAA 6 4.0 06:07:25 10° NNE 06:12:37 82° WNW 06:17:46 10° SSW
Cosmos 1602 Rocket 3.8 06:09:37 10° SSW 06:13:47 46° WNW 06:17:58 10° N
Meteor 1-31 Rocket 4.3 06:11:26 10° NNW 06:13:51 16° WNW 06:16:15 10° WSW
Cosmos 1814 Rocket 4.2 06:09:15 10° NNW 06:14:30 56° WSW 06:19:42 10° S
METEOR-M 4.1 06:09:23 10° N 06:14:44 70° WNW 06:20:01 10° SSW
Cosmos 1758 Rocket 3.7 06:10:58 10° S 06:15:18 80° E 06:19:43 10° NNE
Cosmos 1943 Rocket 2.7 06:10:31 10° NW 06:15:45 39° WSW 06:20:57 10° S
ASTEX 1 3.4 06:11:01 10° S 06:15:50 61° W 06:20:43 10° NNW
